Ringgold, VA

3:12 PM EDT on July 28, 2016 (GMT -0400)
Danville Regional

Weather History for KDAN - May, 2013

Change the Weather History Date:

Tuesday, May 28, 2013

  Actual Average Record
Temperature  
Mean Temperature 72 °F 70 °F  
Max Temperature 85 °F 80 °F 97 °F (1965)
Min Temperature 58 °F 60 °F 38 °F (1961)
Degree Days  
Heating Degree Days 0 1  
Month to date heating degree days 109 66  
Since 1 July heating degree days 3778 3809  
Cooling Degree Days 7 5  
Month to date cooling degree days 86 92  
Year to date cooling degree days 134 126  
Growing Degree Days 20 (Base 50)    
Moisture  
Dew Point 60 °F    
Average Humidity 71    
Maximum Humidity 93    
Minimum Humidity 48    
Precipitation  
Precipitation 0.00 in 0.14 in 1.85 in (1996)
Month to date precipitation 4.81 3.45  
Year to date precipitation 20.21 17.45  
Snow  
Snow 0.00 in - - ()
Month to date snowfall 0.0  
Since 1 July snowfall 1.7  
Snow Depth 0.00 in    
Sea Level Pressure  
Sea Level Pressure 30.15 in    
Wind  
Wind Speed 6 mph (SSW)    
Max Wind Speed 17 mph    
Max Gust Speed 24 mph    
Visibility 10 miles    
Events      
T = Trace of Precipitation, MM = Missing Value Source: NWS Daily Summary

Daily Weather History Graph

Daily Weather History Graph

Search for Another Location

Airport or City:

Trip Planner

Search our weather history database for the weather conditions in past years. The results will help you decide how hot, cold, wet, or windy it might be!

Date:

Astronomy

May. 28, 2013 Rise Set
Actual Time 6:01 AM EDT 8:27 PM EDT
Civil Twilight 5:32 AM EDT 8:57 PM EDT
Nautical Twilight 4:55 AM EDT 9:34 PM EDT
Astronomical Twilight 4:15 AM EDT 10:15 PM EDT
Moon 11:53 PM EDT 9:45 AM EDT
Length of Visible Light 15h 25m
Length of Day
14h 25m
Waning Gibbous, 83% of the Moon is Illuminated
May 28
Waning Gibbous
May 31
Last Quarter
Jun 8
New
Jun 16
First Quarter
Jun 23
Full

Hourly Weather History & Observations

Time (EDT) Temp. Heat Index Dew Point Humidity Pressure Visibility Wind Dir Wind Speed Gust Speed Precip Events Conditions
12:53 AM 66.9 °F - 51.1 °F 57% 30.16 in 10.0 mi Calm Calm - N/A   Clear
1:53 AM 64.9 °F - 52.0 °F 63% 30.16 in 10.0 mi South 3.5 mph - N/A   Clear
2:53 AM 64.9 °F - 55.0 °F 70% 30.15 in 10.0 mi South 4.6 mph - N/A   Clear
3:53 AM 63.0 °F - 55.9 °F 78% 30.14 in 10.0 mi Calm Calm - N/A   Clear
4:53 AM 59.0 °F - 55.0 °F 87% 30.16 in 10.0 mi Calm Calm - N/A   Clear
5:53 AM 57.9 °F - 55.0 °F 90% 30.18 in 10.0 mi Calm Calm - N/A   Clear
6:53 AM 61.0 °F - 57.0 °F 87% 30.21 in 10.0 mi Calm Calm - N/A   Overcast
7:53 AM 64.9 °F - 60.1 °F 84% 30.21 in 10.0 mi Variable 4.6 mph - N/A   Overcast
8:53 AM 69.1 °F - 62.1 °F 78% 30.21 in 10.0 mi SSW 6.9 mph - N/A   Scattered Clouds
9:53 AM 73.0 °F - 62.1 °F 68% 30.20 in 10.0 mi WSW 11.5 mph - N/A   Clear
10:53 AM 77.0 °F - 64.9 °F 66% 30.20 in 10.0 mi South 5.8 mph - N/A   Clear
11:53 AM 80.1 °F 81.7 °F 64.0 °F 58% 30.19 in 10.0 mi SW 8.1 mph - N/A   Clear
12:53 PM 82.9 °F 84.0 °F 63.0 °F 51% 30.17 in 10.0 mi SW 10.4 mph 21.9 mph N/A   Clear
1:53 PM 82.9 °F 84.0 °F 63.0 °F 51% 30.14 in 10.0 mi SW 15.0 mph 19.6 mph N/A   Partly Cloudy
2:53 PM 84.9 °F 85.9 °F 63.0 °F 48% 30.14 in 10.0 mi SW 12.7 mph 23.0 mph N/A   Partly Cloudy
3:53 PM 82.9 °F 84.4 °F 64.0 °F 53% 30.13 in 10.0 mi South 10.4 mph 16.1 mph N/A   Partly Cloudy
4:53 PM 84.0 °F 84.9 °F 63.0 °F 49% 30.12 in 10.0 mi SW 12.7 mph 20.7 mph N/A   Partly Cloudy
5:53 PM 82.0 °F 83.0 °F 62.1 °F 51% 30.12 in 10.0 mi SSW 9.2 mph 17.3 mph N/A   Scattered Clouds
6:53 PM 81.0 °F 81.9 °F 62.1 °F 52% 30.11 in 10.0 mi SSW 8.1 mph - N/A   Clear
7:53 PM 78.1 °F - 62.1 °F 58% 30.11 in 10.0 mi SSW 4.6 mph - N/A   Clear
8:53 PM 75.0 °F - 62.1 °F 64% 30.11 in 10.0 mi South 4.6 mph - N/A   Clear
9:53 PM 72.0 °F - 62.1 °F 71% 30.12 in 10.0 mi South 3.5 mph - N/A   Clear
10:53 PM 72.0 °F - 62.1 °F 71% 30.14 in 10.0 mi South 4.6 mph - N/A   Clear
11:53 PM 71.1 °F - 62.1 °F 73% 30.13 in 10.0 mi SSW 5.8 mph - N/A   Clear